| time (UTC) | temp C | wind direction | speed KPH | gust KPH | rain 1hr cm | rain 24hr cm | rain mn cm | humidity % | barometer mb |
| 20260507123600 | 11 | 0 | 0.0 | 3.2 | 0.00 | 0.00 | 0.00 | 81 | 1015.6 |
| 20260507123100 | 11 | 360 | 0.0 | 3.2 | 0.00 | 0.00 | 0.00 | 81 | 1015.6 |
| 20260507122559 | 11 | 0 | 0.0 | 3.2 | 0.00 | 0.00 | 0.00 | 81 | 1015.8 |
| 20260507122058 | 11 | 0 | 0.0 | 3.2 | 0.00 | 0.00 | 0.00 | 81 | 1015.7 |
| 20260507121558 | 11 | 0 | 0.0 | 3.2 | 0.00 | 0.00 | 0.00 | 81 | 1015.7 |
| 20260507121100 | 11 | 0 | 0.0 | 0.0 | 0.00 | 0.00 | 0.00 | 81 | 1015.7 |
| 20260507120559 | 11 | 0 | 0.0 | 0.0 | 0.00 | 0.00 | 0.00 | 81 | 1015.6 |
| 20260507120100 | 11 | 0 | 0.0 | 4.8 | 0.00 | 0.00 | 0.00 | 81 | 1015.7 |
| 20260507115559 | 11 | 0 | 0.0 | 4.8 | 0.00 | 0.00 | 0.00 | 81 | 1015.7 |
| 20260507115100 | 12 | 360 | 0.0 | 3.2 | 0.00 | 0.00 | 0.00 | 81 | 1015.8 |
| 20260507114609 | 12 | 0 | 0.0 | 0.0 | 0.00 | 0.00 | 0.00 | 80 | 1015.7 |
| 20260507114059 | 12 | 0 | 0.0 | 0.0 | 0.00 | 0.00 | 0.00 | 81 | 1015.8 |
| 20260507113602 | 12 | 0 | 0.0 | 4.8 | 0.00 | 0.00 | 0.00 | 81 | 1016.0 |
| 20260507113129 | 12 | 0 | 0.0 | 4.8 | 0.00 | 0.00 | 0.00 | 81 | 1015.8 |
| 20260507112559 | 12 | 118 | 3.2 | 4.8 | 0.00 | 0.00 | 0.00 | 81 | 1015.9 |
| 20260507112100 | 12 | 360 | 1.6 | 6.4 | 0.00 | 0.00 | 0.00 | 81 | 1015.9 |
| 20260507111600 | 12 | 360 | 3.2 | 6.4 | 0.00 | 0.00 | 0.00 | 81 | 1016.0 |
| 20260507111058 | 12 | 360 | 4.8 | 6.4 | 0.00 | 0.00 | 0.00 | 81 | 1016.0 |
| 20260507110559 | 12 | 360 | 3.2 | 6.4 | 0.00 | 0.00 | 0.00 | 81 | 1016.1 |
| 20260507110059 | 12 | 117 | 3.2 | 6.4 | 0.00 | 0.00 | 0.00 | 80 | 1016.1 |
| 20260507105559 | 12 | 117 | 4.8 | 6.4 | 0.00 | 0.00 | 0.00 | 80 | 1016.0 |
| 20260507105059 | 12 | 360 | 0.0 | 3.2 | 0.00 | 0.00 | 0.00 | 80 | 1016.0 |
| 20260507104558 | 12 | 360 | 0.0 | 4.8 | 0.00 | 0.00 | 0.00 | 80 | 1016.0 |
| 20260507104100 | 12 | 118 | 1.6 | 4.8 | 0.00 | 0.00 | 0.00 | 80 | 1016.0 |
| 20260507103559 | 12 | 360 | 1.6 | 4.8 | 0.00 | 0.00 | 0.00 | 80 | 1016.1 |
| 20260507103059 | 12 | 0 | 0.0 | 3.2 | 0.00 | 0.00 | 0.00 | 79 | 1016.1 |
| 20260507102559 | 12 | 0 | 0.0 | 3.2 | 0.00 | 0.00 | 0.00 | 79 | 1016.2 |
| 20260507102059 | 12 | 0 | 1.6 | 6.4 | 0.00 | 0.00 | 0.00 | 78 | 1016.3 |
| 20260507101603 | 12 | 115 | 1.6 | 6.4 | 0.00 | 0.00 | 0.00 | 78 | 1016.2 |
| 20260507101059 | 12 | 115 | 4.8 | 6.4 | 0.00 | 0.00 | 0.00 | 78 | 1016.3 |
| 20260507100604 | 12 | 118 | 1.6 | 4.8 | 0.00 | 0.00 | 0.00 | 78 | 1016.2 |
| 20260507100115 | 12 | 0 | 0.0 | 3.2 | 0.00 | 0.00 | 0.00 | 78 | 1016.3 |
| 20260507095559 | 12 | 0 | 1.6 | 3.2 | 0.00 | 0.00 | 0.00 | 77 | 1016.3 |
| 20260507095100 | 12 | 0 | 0.0 | 4.8 | 0.00 | 0.00 | 0.00 | 77 | 1016.2 |
| 20260507094615 | 13 | 0 | 1.6 | 4.8 | 0.00 | 0.00 | 0.00 | 77 | 1016.3 |
| 20260507094059 | 13 | 118 | 0.0 | 4.8 | 0.00 | 0.00 | 0.00 | 77 | 1016.4 |
| 20260507093559 | 13 | 118 | 1.6 | 4.8 | 0.00 | 0.00 | 0.00 | 77 | 1016.5 |
| 20260507093115 | 13 | 118 | 0.0 | 9.7 | 0.00 | 0.00 | 0.00 | 76 | 1016.5 |
| 20260507092559 | 13 | 117 | 4.8 | 9.7 | 0.00 | 0.00 | 0.00 | 76 | 1016.5 |
| 20260507092059 | 13 | 178 | 1.6 | 4.8 | 0.00 | 0.00 | 0.00 | 76 | 1016.5 |
| 20260507091101 | 13 | 0 | 0.0 | 0.0 | 0.00 | 0.00 | 0.00 | 75 | 1016.5 |
| 20260507090559 | 13 | 0 | 0.0 | 0.0 | 0.00 | 0.00 | 0.00 | 74 | 1016.6 |
| 20260507090110 | 13 | 0 | 0.0 | 3.2 | 0.00 | 0.00 | 0.00 | 74 | 1016.5 |
| 20260507085603 | 13 | 0 | 0.0 | 3.2 | 0.00 | 0.00 | 0.00 | 74 | 1016.5 |
| 20260507085100 | 13 | 180 | 0.0 | 1.6 | 0.00 | 0.00 | 0.00 | 74 | 1016.6 |
| 20260507084611 | 13 | 0 | 0.0 | 0.0 | 0.00 | 0.00 | 0.00 | 74 | 1016.9 |
| 20260507084100 | 13 | 0 | 0.0 | 3.2 | 0.00 | 0.00 | 0.00 | 74 | 1016.8 |
| 20260507083559 | 14 | 0 | 0.0 | 3.2 | 0.00 | 0.00 | 0.00 | 74 | 1016.8 |
| 20260507083111 | 14 | 180 | 0.0 | 4.8 | 0.00 | 0.00 | 0.00 | 74 | 1017.0 |
| 20260507082600 | 14 | 0 | 1.6 | 4.8 | 0.00 | 0.00 | 0.00 | 74 | 1016.9 |
| 20260507082059 | 14 | 0 | 0.0 | 1.6 | 0.00 | 0.00 | 0.00 | 74 | 1016.9 |
| 20260507081607 | 14 | 0 | 0.0 | 1.6 | 0.00 | 0.00 | 0.00 | 74 | 1016.8 |
| 20260507081059 | 14 | 0 | 0.0 | 0.0 | 0.00 | 0.00 | 0.00 | 74 | 1016.9 |
| 20260507080559 | 14 | 0 | 0.0 | 3.2 | 0.00 | 0.00 | 0.00 | 74 | 1017.0 |
| 20260507080107 | 14 | 0 | 0.0 | 3.2 | 0.00 | 0.00 | 0.00 | 74 | 1016.9 |
| 20260507075600 | 14 | 141 | 1.6 | 3.2 | 0.00 | 0.00 | 0.00 | 73 | 1017.0 |
| 20260507075059 | 14 | 141 | 1.6 | 3.2 | 0.00 | 0.00 | 0.00 | 73 | 1017.0 |
| 20260507074600 | 14 | 141 | 0.0 | 3.2 | 0.00 | 0.00 | 0.00 | 73 | 1017.0 |
| 20260507074105 | 15 | 0 | 0.0 | 4.8 | 0.00 | 0.00 | 0.00 | 72 | 1016.9 |
| 20260507073602 | 15 | 0 | 0.0 | 4.8 | 0.00 | 0.00 | 0.00 | 72 | 1017.0 |
| 20260507073105 | 15 | 0 | 1.6 | 4.8 | 0.00 | 0.00 | 0.00 | 72 | 1017.0 |
| 20260507072600 | 15 | 0 | 0.0 | 4.8 | 0.00 | 0.00 | 0.00 | 72 | 1017.0 |
| 20260507072059 | 15 | 141 | 0.0 | 6.4 | 0.00 | 0.00 | 0.00 | 71 | 1017.1 |
| 20260507071556 | 15 | 141 | 3.2 | 6.4 | 0.00 | 0.00 | 0.00 | 71 | 1017.3 |
| 20260507071059 | 15 | 142 | 3.2 | 6.4 | 0.00 | 0.00 | 0.00 | 71 | 1017.4 |
| 20260507070603 | 15 | 212 | 0.0 | 4.8 | 0.00 | 0.00 | 0.00 | 70 | 1017.3 |
| 20260507070106 | 15 | 0 | 1.6 | 4.8 | 0.00 | 0.00 | 0.00 | 70 | 1017.3 |
| 20260507065603 | 15 | 212 | 3.2 | 4.8 | 0.00 | 0.00 | 0.00 | 70 | 1017.4 |
| 20260507065059 | 15 | 214 | 1.6 | 4.8 | 0.00 | 0.00 | 0.00 | 70 | 1017.4 |
| 20260507064556 | 15 | 0 | 0.0 | 0.0 | 0.00 | 0.00 | 0.00 | 70 | 1017.3 |
| 20260507064100 | 15 | 0 | 0.0 | 3.2 | 0.00 | 0.00 | 0.00 | 70 | 1017.2 |
| 20260507063559 | 15 | 0 | 0.0 | 3.2 | 0.00 | 0.00 | 0.00 | 70 | 1017.3 |
| 20260507063059 | 15 | 0 | 1.6 | 6.4 | 0.00 | 0.00 | 0.00 | 70 | 1017.4 |
| 20260507062559 | 15 | 0 | 1.6 | 6.4 | 0.00 | 0.00 | 0.00 | 69 | 1017.4 |
| 20260507062100 | 15 | 235 | 3.2 | 6.4 | 0.00 | 0.00 | 0.00 | 69 | 1017.3 |
| 20260507061557 | 15 | 0 | 3.2 | 8.0 | 0.00 | 0.00 | 0.00 | 69 | 1017.4 |
| 20260507061100 | 15 | 242 | 3.2 | 8.0 | 0.00 | 0.00 | 0.00 | 69 | 1017.4 |
| 20260507060602 | 15 | 248 | 4.8 | 11.3 | 0.00 | 0.00 | 0.00 | 69 | 1017.3 |
| 20260507060103 | 15 | 258 | 8.0 | 11.3 | 0.00 | 0.00 | 0.00 | 69 | 1017.3 |
| 20260507055559 | 15 | 248 | 4.8 | 11.3 | 0.00 | 0.00 | 0.00 | 69 | 1017.3 |
| 20260507055059 | 15 | 229 | 6.4 | 11.3 | 0.00 | 0.00 | 0.00 | 69 | 1017.1 |
| 20260507054559 | 15 | 209 | 4.8 | 9.7 | 0.00 | 0.00 | 0.00 | 69 | 1017.3 |
| 20260507054103 | 15 | 241 | 4.8 | 9.7 | 0.00 | 0.00 | 0.00 | 69 | 1017.3 |
| 20260507053559 | 15 | 360 | 4.8 | 11.3 | 0.00 | 0.00 | 0.00 | 69 | 1017.1 |
| 20260507053058 | 15 | 229 | 6.4 | 11.3 | 0.00 | 0.00 | 0.00 | 69 | 1017.3 |
| 20260507052602 | 15 | 194 | 6.4 | 14.5 | 0.00 | 0.00 | 0.00 | 69 | 1017.3 |
| 20260507052059 | 16 | 225 | 8.0 | 14.5 | 0.00 | 0.00 | 0.00 | 69 | 1017.4 |
| 20260507051558 | 16 | 189 | 8.0 | 16.1 | 0.00 | 0.00 | 0.00 | 69 | 1017.4 |
| 20260507051057 | 16 | 192 | 6.4 | 16.1 | 0.00 | 0.00 | 0.00 | 69 | 1017.3 |
| 20260507050603 | 16 | 196 | 8.0 | 16.1 | 0.00 | 0.00 | 0.00 | 69 | 1017.3 |
| 20260507050059 | 16 | 205 | 6.4 | 12.9 | 0.00 | 0.00 | 0.00 | 69 | 1017.2 |
| 20260507045601 | 16 | 227 | 8.0 | 12.9 | 0.00 | 0.00 | 0.00 | 69 | 1017.2 |
| 20260507045100 | 16 | 360 | 3.2 | 11.3 | 0.00 | 0.00 | 0.00 | 68 | 1017.2 |
| 20260507044610 | 16 | 264 | 4.8 | 12.9 | 0.00 | 0.00 | 0.00 | 68 | 1017.1 |
| 20260507044059 | 16 | 257 | 4.8 | 12.9 | 0.00 | 0.00 | 0.00 | 68 | 1017.1 |
| 20260507043559 | 16 | 250 | 4.8 | 9.7 | 0.00 | 0.00 | 0.00 | 67 | 1017.0 |
| 20260507043109 | 16 | 246 | 4.8 | 8.0 | 0.00 | 0.00 | 0.00 | 67 | 1017.0 |
| 20260507042600 | 16 | 244 | 3.2 | 9.7 | 0.00 | 0.00 | 0.00 | 67 | 1017.0 |
| 20260507042059 | 16 | 239 | 6.4 | 11.3 | 0.00 | 0.00 | 0.00 | 67 | 1017.0 |
| 20260507041601 | 17 | 234 | 4.8 | 11.3 | 0.00 | 0.00 | 0.00 | 66 | 1017.0 |
| 20260507041059 | 17 | 244 | 4.8 | 12.9 | 0.00 | 0.00 | 0.00 | 66 | 1016.9 |
| 20260507040559 | 17 | 235 | 4.8 | 12.9 | 0.00 | 0.00 | 0.00 | 66 | 1016.9 |
| 20260507040059 | 17 | 270 | 8.0 | 12.9 | 0.00 | 0.00 | 0.00 | 65 | 1016.8 |
| 20260507035600 | 17 | 254 | 4.8 | 11.3 | 0.00 | 0.00 | 0.00 | 64 | 1016.8 |
| 20260507035100 | 17 | 360 | 6.4 | 11.3 | 0.00 | 0.00 | 0.00 | 64 | 1016.7 |
| 20260507034558 | 18 | 360 | 4.8 | 9.7 | 0.00 | 0.00 | 0.00 | 64 | 1016.6 |
| 20260507034059 | 18 | 360 | 3.2 | 8.0 | 0.00 | 0.00 | 0.00 | 64 | 1016.6 |
| 20260507033601 | 18 | 226 | 6.4 | 8.0 | 0.00 | 0.00 | 0.00 | 64 | 1016.5 |
| 20260507033058 | 18 | 233 | 6.4 | 9.7 | 0.00 | 0.00 | 0.00 | 64 | 1016.6 |
| 20260507032601 | 18 | 234 | 4.8 | 11.3 | 0.00 | 0.00 | 0.00 | 63 | 1016.4 |
| 20260507032059 | 18 | 231 | 6.4 | 14.5 | 0.00 | 0.00 | 0.00 | 63 | 1016.3 |
| 20260507031606 | 18 | 228 | 6.4 | 14.5 | 0.00 | 0.00 | 0.00 | 63 | 1016.2 |
| 20260507031101 | 18 | 232 | 6.4 | 16.1 | 0.00 | 0.00 | 0.00 | 62 | 1016.2 |
| 20260507030600 | 18 | 209 | 9.7 | 16.1 | 0.00 | 0.00 | 0.00 | 62 | 1016.1 |
| 20260507030057 | 19 | 236 | 8.0 | 17.7 | 0.00 | 0.00 | 0.00 | 62 | 1016.1 |
| 20260507025559 | 19 | 200 | 11.3 | 17.7 | 0.00 | 0.00 | 0.00 | 61 | 1016.0 |
| 20260507025059 | 19 | 238 | 8.0 | 17.7 | 0.00 | 0.00 | 0.00 | 61 | 1016.0 |
| 20260507024600 | 19 | 193 | 9.7 | 22.5 | 0.00 | 0.00 | 0.00 | 61 | 1016.0 |
| 20260507024056 | 20 | 360 | 12.9 | 22.5 | 0.00 | 0.00 | 0.00 | 60 | 1016.0 |
| 20260507023602 | 20 | 244 | 12.9 | 19.3 | 0.00 | 0.00 | 0.00 | 60 | 1016.0 |
| 20260507023109 | 20 | 182 | 11.3 | 24.1 | 0.00 | 0.00 | 0.00 | 59 | 1015.9 |
| 20260507022559 | 20 | 207 | 11.3 | 24.1 | 0.00 | 0.00 | 0.00 | 59 | 1015.7 |
| 20260507022100 | 20 | 224 | 12.9 | 20.9 | 0.00 | 0.00 | 0.00 | 58 | 1015.6 |
| 20260507021558 | 20 | 360 | 12.9 | 22.5 | 0.00 | 0.00 | 0.00 | 58 | 1015.5 |
| 20260507021059 | 20 | 228 | 14.5 | 27.4 | 0.00 | 0.00 | 0.00 | 58 | 1015.4 |
| 20260507020600 | 21 | 209 | 19.3 | 27.4 | 0.00 | 0.00 | 0.00 | 57 | 1015.4 |
| 20260507020105 | 21 | 227 | 17.7 | 29.0 | 0.00 | 0.00 | 0.00 | 57 | 1015.2 |
| 20260507015559 | 21 | 224 | 19.3 | 29.0 | 0.00 | 0.00 | 0.00 | 56 | 1015.3 |
| 20260507015059 | 21 | 211 | 14.5 | 29.0 | 0.00 | 0.00 | 0.00 | 56 | 1015.1 |
| 20260507014059 | 21 | 221 | 16.1 | 29.0 | 0.00 | 0.00 | 0.00 | 55 | 1015.2 |
| 20260507013600 | 22 | 193 | 17.7 | 29.0 | 0.00 | 0.00 | 0.00 | 54 | 1015.2 |
| 20260507013057 | 22 | 189 | 17.7 | 25.7 | 0.00 | 0.00 | 0.00 | 54 | 1015.1 |
| 20260507012559 | 22 | 238 | 14.5 | 25.7 | 0.00 | 0.00 | 0.00 | 53 | 1015.0 |
| 20260507012056 | 22 | 192 | 16.1 | 25.7 | 0.00 | 0.00 | 0.00 | 53 | 1014.9 |
| 20260507011601 | 22 | 194 | 17.7 | 25.7 | 0.00 | 0.00 | 0.00 | 52 | 1014.9 |
| 20260507011058 | 23 | 223 | 12.9 | 25.7 | 0.00 | 0.00 | 0.00 | 51 | 1015.1 |
| 20260507010559 | 23 | 229 | 14.5 | 25.7 | 0.00 | 0.00 | 0.00 | 51 | 1015.0 |
| 20260507010107 | 23 | 189 | 16.1 | 25.7 | 0.00 | 0.00 | 0.00 | 51 | 1014.9 |
| 20260507005600 | 23 | 232 | 12.9 | 22.5 | 0.00 | 0.00 | 0.00 | 50 | 1014.8 |
| 20260507005104 | 23 | 185 | 12.9 | 22.5 | 0.00 | 0.00 | 0.00 | 49 | 1014.9 |
| 20260507004610 | 23 | 173 | 11.3 | 24.1 | 0.00 | 0.00 | 0.00 | 50 | 1014.7 |
| 20260507004059 | 23 | 222 | 16.1 | 24.1 | 0.00 | 0.00 | 0.00 | 49 | 1014.5 |
| 20260507003556 | 23 | 200 | 16.1 | 27.4 | 0.00 | 0.00 | 0.00 | 49 | 1014.5 |
| 20260507003117 | 23 | 208 | 16.1 | 27.4 | 0.00 | 0.00 | 0.00 | 49 | 1014.5 |
| 20260507002555 | 24 | 239 | 14.5 | 25.7 | 0.00 | 0.00 | 0.00 | 48 | 1014.5 |
| 20260507002059 | 24 | 173 | 12.9 | 29.0 | 0.00 | 0.00 | 0.00 | 48 | 1014.5 |
| 20260507001617 | 24 | 241 | 16.1 | 29.0 | 0.00 | 0.00 | 0.00 | 46 | 1014.4 |
| 20260507001059 | 24 | 187 | 17.7 | 29.0 | 0.00 | 0.00 | 0.00 | 46 | 1014.5 |
| 20260507000603 | 25 | 198 | 12.9 | 30.6 | 0.00 | 0.00 | 0.00 | 45 | 1014.2 |
| 20260506235600 | 25 | 227 | 17.7 | 27.4 | 0.00 | 0.00 | 0.00 | 44 | 1014.2 |
| 20260506235100 | 25 | 221 | 9.7 | 25.7 | 0.00 | 0.00 | 0.00 | 36 | 1014.2 |
| 20260506234600 | 25 | 281 | 11.3 | 20.9 | 0.00 | 0.00 | 0.00 | 35 | 1014.1 |
| 20260506234059 | 25 | 280 | 6.4 | 24.1 | 0.00 | 0.00 | 0.00 | 35 | 1014.1 |
| 20260506233602 | 25 | 273 | 9.7 | 24.1 | 0.00 | 0.00 | 0.00 | 35 | 1014.2 |
| 20260506233102 | 26 | 273 | 9.7 | 19.3 | 0.00 | 0.00 | 0.00 | 35 | 1014.1 |
| 20260506232559 | 25 | 235 | 8.0 | 22.5 | 0.00 | 0.00 | 0.00 | 34 | 1014.1 |
| 20260506232059 | 25 | 261 | 14.5 | 22.5 | 0.00 | 0.00 | 0.00 | 34 | 1014.2 |
| 20260506231607 | 26 | 323 | 8.0 | 17.7 | 0.00 | 0.00 | 0.00 | 33 | 1014.1 |
| 20260506231100 | 26 | 257 | 11.3 | 16.1 | 0.00 | 0.00 | 0.00 | 33 | 1014.1 |
| 20260506230600 | 26 | 238 | 8.0 | 17.7 | 0.00 | 0.00 | 0.00 | 33 | 1014.1 |
| 20260506230114 | 26 | 273 | 4.8 | 17.7 | 0.00 | 0.00 | 0.00 | 33 | 1014.2 |
| 20260506225559 | 26 | 256 | 9.7 | 19.3 | 0.00 | 0.00 | 0.00 | 33 | 1014.2 |
| 20260506225059 | 25 | 211 | 4.8 | 20.9 | 0.00 | 0.00 | 0.00 | 34 | 1014.1 |
| 20260506224602 | 25 | 228 | 14.5 | 20.9 | 0.00 | 0.00 | 0.00 | 34 | 1014.3 |
| 20260506224102 | 25 | 238 | 3.2 | 24.1 | 0.00 | 0.00 | 0.00 | 34 | 1014.3 |
| 20260506223600 | 25 | 245 | 14.5 | 24.1 | 0.00 | 0.00 | 0.00 | 34 | 1014.4 |
| 20260506223104 | 25 | 256 | 12.9 | 17.7 | 0.00 | 0.00 | 0.00 | 34 | 1014.4 |
| 20260506222600 | 26 | 240 | 8.0 | 16.1 | 0.00 | 0.00 | 0.00 | 34 | 1014.5 |
| 20260506222101 | 26 | 255 | 6.4 | 16.1 | 0.00 | 0.00 | 0.00 | 34 | 1014.5 |
| 20260506221610 | 26 | 269 | 6.4 | 16.1 | 0.00 | 0.00 | 0.00 | 34 | 1014.6 |
| 20260506221059 | 25 | 190 | 4.8 | 16.1 | 0.00 | 0.00 | 0.00 | 35 | 1014.5 |
| 20260506220601 | 25 | 329 | 6.4 | 16.1 | 0.00 | 0.00 | 0.00 | 35 | 1014.9 |
| 20260506220100 | 25 | 250 | 4.8 | 12.9 | 0.00 | 0.00 | 0.00 | 36 | 1015.0 |
| 20260506215602 | 25 | 0 | 4.8 | 11.3 | 0.00 | 0.00 | 0.00 | 36 | 1015.0 |
| 20260506215058 | 24 | 188 | 4.8 | 16.1 | 0.00 | 0.00 | 0.00 | 37 | 1015.1 |
| 20260506214559 | 23 | 175 | 6.4 | 16.1 | 0.00 | 0.00 | 0.00 | 38 | 1015.3 |
| 20260506214059 | 23 | 98 | 8.0 | 16.1 | 0.00 | 0.00 | 0.00 | 38 | 1015.2 |
| 20260506213601 | 23 | 151 | 8.0 | 16.1 | 0.00 | 0.00 | 0.00 | 38 | 1015.4 |
| 20260506213103 | 23 | 94 | 3.2 | 14.5 | 0.00 | 0.00 | 0.00 | 39 | 1015.5 |
| 20260506212602 | 23 | 109 | 6.4 | 14.5 | 0.00 | 0.00 | 0.00 | 38 | 1015.5 |
| 20260506212102 | 23 | 79 | 8.0 | 12.9 | 0.00 | 0.00 | 0.00 | 38 | 1015.5 |
| 20260506211559 | 23 | 156 | 3.2 | 11.3 | 0.00 | 0.00 | 0.00 | 38 | 1015.6 |
| 20260506211059 | 23 | 33 | 6.4 | 11.3 | 0.00 | 0.00 | 0.00 | 39 | 1015.7 |
| 20260506210559 | 23 | 86 | 4.8 | 16.1 | 0.00 | 0.00 | 0.00 | 39 | 1015.8 |
| 20260506210110 | 23 | 148 | 6.4 | 16.1 | 0.00 | 0.00 | 0.00 | 38 | 1015.8 |
| 20260506205600 | 23 | 164 | 3.2 | 11.3 | 0.00 | 0.00 | 0.00 | 38 | 1015.9 |
| 20260506205056 | 23 | 38 | 3.2 | 12.9 | 0.00 | 0.00 | 0.00 | 39 | 1015.8 |
| 20260506204603 | 22 | 309 | 4.8 | 25.7 | 0.00 | 0.00 | 0.00 | 41 | 1015.9 |
| 20260506204058 | 22 | 246 | 12.9 | 25.7 | 0.00 | 0.00 | 0.00 | 40 | 1016.1 |
| 20260506203555 | 22 | 133 | 4.8 | 14.5 | 0.00 | 0.00 | 0.00 | 41 | 1016.0 |
| 20260506203122 | 22 | 140 | 0.0 | 14.5 | 0.00 | 0.00 | 0.00 | 42 | 1016.0 |
| 20260506202556 | 22 | 86 | 8.0 | 14.5 | 0.00 | 0.00 | 0.00 | 42 | 1016.2 |
| 20260506202056 | 22 | 117 | 4.8 | 12.9 | 0.00 | 0.00 | 0.00 | 41 | 1016.4 |
| 20260506201558 | 22 | 352 | 1.6 | 14.5 | 0.00 | 0.00 | 0.00 | 42 | 1016.4 |
| 20260506201059 | 22 | 148 | 4.8 | 16.1 | 0.00 | 0.00 | 0.00 | 43 | 1016.5 |
| 20260506200601 | 21 | 173 | 8.0 | 16.1 | 0.00 | 0.00 | 0.00 | 43 | 1016.3 |
| 20260506195556 | 21 | 163 | 4.8 | 14.5 | 0.00 | 0.00 | 0.00 | 45 | 1016.6 |
| 20260506195059 | 21 | 200 | 8.0 | 14.5 | 0.00 | 0.00 | 0.00 | 45 | 1016.7 |
| 20260506194605 | 21 | 266 | 8.0 | 12.9 | 0.00 | 0.00 | 0.00 | 45 | 1016.7 |
| 20260506194059 | 21 | 149 | 8.0 | 16.1 | 0.00 | 0.00 | 0.00 | 44 | 1016.8 |
| 20260506193555 | 21 | 165 | 8.0 | 17.7 | 0.00 | 0.00 | 0.00 | 44 | 1017.0 |
| 20260506193107 | 21 | 175 | 4.8 | 17.7 | 0.00 | 0.00 | 0.00 | 44 | 1017.0 |
| 20260506192558 | 21 | 138 | 8.0 | 16.1 | 0.00 | 0.00 | 0.00 | 44 | 1017.1 |
| 20260506192055 | 21 | 176 | 4.8 | 11.3 | 0.00 | 0.00 | 0.00 | 44 | 1017.1 |
| 20260506191556 | 21 | 0 | 3.2 | 11.3 | 0.00 | 0.00 | 0.00 | 45 | 1017.1 |
| 20260506191057 | 20 | 201 | 1.6 | 4.8 | 0.00 | 0.00 | 0.00 | 46 | 1017.1 |
| 20260506190602 | 20 | 0 | 3.2 | 14.5 | 0.00 | 0.00 | 0.00 | 47 | 1017.3 |
| 20260506190100 | 20 | 360 | 8.0 | 14.5 | 0.00 | 0.00 | 0.00 | 47 | 1017.2 |
| 20260506185555 | 20 | 0 | 1.6 | 9.7 | 0.00 | 0.00 | 0.00 | 46 | 1017.3 |
| 20260506185058 | 20 | 121 | 0.0 | 16.1 | 0.00 | 0.00 | 0.00 | 47 | 1017.3 |
| 20260506184556 | 20 | 242 | 3.2 | 16.1 | 0.00 | 0.00 | 0.00 | 47 | 1017.4 |
| 20260506184058 | 20 | 187 | 8.0 | 16.1 | 0.00 | 0.00 | 0.00 | 47 | 1017.5 |
| 20260506183558 | 20 | 175 | 4.8 | 14.5 | 0.00 | 0.00 | 0.00 | 46 | 1017.6 |
| 20260506183107 | 20 | 243 | 1.6 | 14.5 | 0.00 | 0.00 | 0.00 | 47 | 1017.8 |
| 20260506182555 | 20 | 280 | 6.4 | 14.5 | 0.00 | 0.00 | 0.00 | 48 | 1017.8 |
| 20260506182059 | 19 | 306 | 1.6 | 14.5 | 0.00 | 0.00 | 0.00 | 49 | 1018.0 |
| 20260506181603 | 18 | 0 | 4.8 | 14.5 | 0.00 | 0.00 | 0.00 | 50 | 1017.8 |
| 20260506181056 | 18 | 167 | 8.0 | 12.9 | 0.00 | 0.00 | 0.00 | 50 | 1017.9 |
| 20260506180559 | 18 | 222 | 1.6 | 14.5 | 0.00 | 0.00 | 0.00 | 51 | 1017.9 |
| 20260506175556 | 17 | 160 | 1.6 | 11.3 | 0.00 | 0.00 | 0.00 | 52 | 1018.0 |
| 20260506175059 | 17 | 360 | 6.4 | 14.5 | 0.00 | 0.00 | 0.00 | 53 | 1018.0 |
| 20260506174556 | 17 | 223 | 6.4 | 14.5 | 0.00 | 0.00 | 0.00 | 52 | 1018.0 |
| 20260506174058 | 17 | 251 | 4.8 | 9.7 | 0.00 | 0.00 | 0.00 | 51 | 1018.0 |
| 20260506173558 | 17 | 239 | 4.8 | 9.7 | 0.00 | 0.00 | 0.00 | 52 | 1018.0 |
| 20260506173109 | 17 | 97 | 1.6 | 8.0 | 0.00 | 0.00 | 0.00 | 53 | 1018.0 |
| 20260506172555 | 17 | 168 | 3.2 | 9.7 | 0.00 | 0.00 | 0.00 | 53 | 1018.1 |
| 20260506172059 | 17 | 254 | 3.2 | 9.7 | 0.00 | 0.00 | 0.00 | 53 | 1018.1 |
| 20260506171556 | 17 | 183 | 4.8 | 8.0 | 0.00 | 0.00 | 0.00 | 53 | 1018.1 |
| 20260506171059 | 16 | 100 | 0.0 | 8.0 | 0.00 | 0.00 | 0.00 | 54 | 1018.0 |
| 20260506170556 | 16 | 191 | 0.0 | 8.0 | 0.00 | 0.00 | 0.00 | 54 | 1018.1 |
| 20260506170107 | 16 | 263 | 4.8 | 11.3 | 0.00 | 0.00 | 0.00 | 53 | 1018.0 |
| 20260506165558 | 16 | 185 | 4.8 | 11.3 | 0.00 | 0.00 | 0.00 | 53 | 1018.1 |
| 20260506165056 | 16 | 175 | 4.8 | 9.7 | 0.00 | 0.00 | 0.00 | 53 | 1018.2 |
| 20260506164625 | 16 | 237 | 4.8 | 9.7 | 0.00 | 0.00 | 0.00 | 53 | 1018.1 |
| 20260506164056 | 16 | 245 | 0.0 | 6.4 | 0.00 | 0.00 | 0.00 | 53 | 1018.1 |
| 20260506163600 | 16 | 360 | 0.0 | 6.4 | 0.00 | 0.00 | 0.00 | 53 | 1018.2 |
| 20260506163104 | 16 | 0 | 1.6 | 6.4 | 0.00 | 0.00 | 0.00 | 55 | 1018.2 |
| 20260506162558 | 16 | 254 | 4.8 | 6.4 | 0.00 | 0.00 | 0.00 | 56 | 1018.2 |
| 20260506162055 | 16 | 0 | 0.0 | 0.0 | 0.00 | 0.00 | 0.00 | 57 | 1018.1 |
| 20260506161557 | 16 | 0 | 0.0 | 3.2 | 0.00 | 0.00 | 0.00 | 59 | 1018.1 |
| 20260506161102 | 16 | 0 | 0.0 | 4.8 | 0.00 | 0.00 | 0.00 | 60 | 1018.1 |
| 20260506160559 | 15 | 0 | 1.6 | 4.8 | 0.00 | 0.00 | 0.00 | 61 | 1018.0 |
| 20260506160109 | 15 | 92 | 0.0 | 3.2 | 0.00 | 0.00 | 0.00 | 62 | 1018.2 |
| 20260506155557 | 15 | 0 | 0.0 | 1.6 | 0.00 | 0.00 | 0.00 | 64 | 1018.0 |
| 20260506155102 | 15 | 0 | 0.0 | 4.8 | 0.00 | 0.00 | 0.00 | 64 | 1018.0 |
| 20260506154558 | 14 | 0 | 0.0 | 4.8 | 0.00 | 0.00 | 0.00 | 65 | 1017.9 |
| 20260506154056 | 14 | 0 | 0.0 | 3.2 | 0.00 | 0.00 | 0.00 | 66 | 1017.9 |
| 20260506153558 | 13 | 0 | 0.0 | 4.8 | 0.00 | 0.00 | 0.00 | 67 | 1018.0 |
| 20260506153058 | 13 | 0 | 0.0 | 6.4 | 0.00 | 0.00 | 0.00 | 68 | 1018.0 |
| 20260506152555 | 13 | 67 | 0.0 | 6.4 | 0.00 | 0.00 | 0.00 | 69 | 1018.0 |
| 20260506152101 | 13 | 67 | 1.6 | 6.4 | 0.00 | 0.00 | 0.00 | 70 | 1018.0 |
| 20260506151604 | 12 | 55 | 1.6 | 6.4 | 0.00 | 0.00 | 0.00 | 72 | 1018.0 |
| 20260506151058 | 12 | 0 | 0.0 | 4.8 | 0.00 | 0.00 | 0.00 | 74 | 1018.1 |
| 20260506150558 | 12 | 0 | 0.0 | 4.8 | 0.00 | 0.00 | 0.00 | 75 | 1018.2 |
| 20260506150107 | 11 | 0 | 1.6 | 4.8 | 0.00 | 0.00 | 0.00 | 77 | 1018.1 |
| 20260506145558 | 11 | 0 | 0.0 | 4.8 | 0.00 | 0.00 | 0.00 | 79 | 1018.0 |
| 20260506145055 | 11 | 97 | 0.0 | 3.2 | 0.00 | 0.00 | 0.00 | 81 | 1018.1 |
| 20260506144600 | 11 | 0 | 1.6 | 3.2 | 0.00 | 0.00 | 0.00 | 81 | 1018.1 |
| 20260506144059 | 10 | 106 | 0.0 | 4.8 | 0.00 | 0.00 | 0.00 | 82 | 1018.2 |
| 20260506143556 | 10 | 0 | 1.6 | 4.8 | 0.00 | 0.00 | 0.00 | 83 | 1018.2 |
| 20260506143059 | 10 | 0 | 0.0 | 0.0 | 0.00 | 0.00 | 0.00 | 83 | 1018.0 |
| 20260506142559 | 9 | 0 | 0.0 | 0.0 | 0.00 | 0.00 | 0.00 | 84 | 1018.1 |
| 20260506142055 | 9 | 0 | 0.0 | 0.0 | 0.00 | 0.00 | 0.00 | 84 | 1018.1 |
| 20260506141556 | 8 | 0 | 0.0 | 0.0 | 0.00 | 0.00 | 0.00 | 84 | 1017.9 |
| 20260506141058 | 8 | 0 | 0.0 | 3.2 | 0.00 | 0.00 | 0.00 | 85 | 1017.9 |
| 20260506140601 | 8 | 0 | 0.0 | 3.2 | 0.00 | 0.00 | 0.00 | 85 | 1017.9 |
| 20260506140057 | 8 | 360 | 0.0 | 4.8 | 0.00 | 0.00 | 0.00 | 85 | 1017.8 |
| 20260506135559 | 8 | 360 | 1.6 | 4.8 | 0.00 | 0.05 | 0.00 | 85 | 1017.7 |
| 20260506135059 | 7 | 360 | 1.6 | 4.8 | 0.00 | 0.05 | 0.00 | 85 | 1017.9 |
| 20260506134557 | 7 | 102 | 1.6 | 4.8 | 0.00 | 0.05 | 0.00 | 85 | 1017.8 |
| 20260506134101 | 7 | 99 | 3.2 | 4.8 | 0.00 | 0.05 | 0.00 | 85 | 1017.7 |
| 20260506133556 | 7 | 360 | 3.2 | 4.8 | 0.00 | 0.05 | 0.00 | 85 | 1017.6 |
| 20260506133109 | 7 | 360 | 3.2 | 4.8 | 0.00 | 0.05 | 0.00 | 85 | 1017.7 |
| 20260506132600 | 7 | 360 | 3.2 | 6.4 | 0.00 | 0.05 | 0.00 | 85 | 1017.7 |
| 20260506132102 | 7 | 360 | 3.2 | 6.4 | 0.00 | 0.05 | 0.00 | 85 | 1017.6 |
| 20260506131616 | 7 | 101 | 4.8 | 6.4 | 0.00 | 0.05 | 0.00 | 85 | 1017.5 |
| 20260506131059 | 7 | 111 | 3.2 | 6.4 | 0.00 | 0.05 | 0.00 | 85 | 1017.5 |
| 20260506130559 | 7 | 113 | 3.2 | 6.4 | 0.00 | 0.05 | 0.00 | 84 | 1017.4 |
| 20260506130059 | 7 | 111 | 3.2 | 6.4 | 0.00 | 0.05 | 0.00 | 84 | 1017.4 |
| 20260506125558 | 7 | 117 | 1.6 | 4.8 | 0.00 | 0.05 | 0.00 | 84 | 1017.4 |
| 20260506125058 | 7 | 360 | 1.6 | 6.4 | 0.00 | 0.05 | 0.00 | 84 | 1017.5 |
| 20260506124558 | 7 | 117 | 3.2 | 6.4 | 0.00 | 0.05 | 0.00 | 84 | 1017.4 |
| 20260506124059 | 7 | 117 | 3.2 | 6.4 | 0.00 | 0.05 | 0.00 | 84 | 1017.3 |